Weather History for PAOM - January, 2013

Change the Weather History Date:

Sunday, January 20, 2013

  Actual Average Record
Temperature  
Mean Temperature 24 °F -  
Max Temperature 27 °F 13 °F 40 °F (1940)
Min Temperature 21 °F -3 °F -40 °F (1989)
Degree Days  
Heating Degree Days 41 60  
Month to date heating degree days 963 1193  
Since 1 July heating degree days 7090 7011  
Cooling Degree Days 0    
Month to date cooling degree days 0  
Year to date cooling degree days 0  
Moisture  
Dew Point 18 °F    
Average Humidity 0    
Maximum Humidity 0    
Minimum Humidity 0    
Precipitation  
Precipitation 0.19 in 0.03 in 0.66 in (1937)
Month to date precipitation 0.92 0.62  
Year to date precipitation 0.92 0.62  
Snow  
Snow 2.40 in 0.40 in 6.80 in (1937)
Month to date snowfall 11.9 8.4  
Since 1 July snowfall 29.2 40.2  
Snow Depth 22.00 in    
Sea Level Pressure  
Sea Level Pressure 29.73 in    
Wind  
Wind Speed 20 mph (ENE)    
Max Wind Speed 29 mph    
Max Gust Speed 39 mph    
Visibility 3 miles    
Events Rain , Snow    
T = Trace of Precipitation, MM = Missing Value Source: NWS Daily Summary

Daily Weather History Graph

Daily Weather History Graph

Search for Another Location

Airport or City:

Trip Planner

Search our weather history database for the weather conditions in past years. The results will help you decide how hot, cold, wet, or windy it might be!

Date:

Astronomy

Jan. 20, 2013 Rise Set
Actual Time 11:18 AM AKST 5:07 PM AKST
Civil Twilight 10:13 AM AKST 6:12 PM AKST
Nautical Twilight 9:10 AM AKST 7:16 PM AKST
Astronomical Twilight 8:12 AM AKST 8:14 PM AKST
Moon 12:21 PM AKST (1/20) 5:53 AM AKST (1/20)
Length of Visible Light 7h 59m
Length of Day
5h 48m
Waxing Gibbous, 67% of the Moon is Illuminated
Jan 20
Waxing Gibbous
Jan 26
Full
Feb 3
Last Quarter
Feb 9
New
Feb 17
First Quarter

Hourly Weather History & Observations

Time (AKST) Temp. Windchill Dew Point Humidity Pressure Visibility Wind Dir Wind Speed Gust Speed Precip Events Conditions
12:01 AM 21.2 °F 6.0 °F 17.6 °F 86% 29.69 in 2.5 mi NE 19.6 mph 33.4 mph 0.00 in Snow Light Snow
12:28 AM 19.4 °F 4.5 °F 17.6 °F 93% 29.69 in 1.8 mi ENE 17.3 mph 31.1 mph 0.01 in Snow Light Snow
12:51 AM 19.4 °F 3.2 °F 17.6 °F 93% 29.68 in 1.2 mi NE 20.7 mph 29.9 mph 0.01 in Snow Light Snow
12:53 AM 19.9 °F 4.3 °F 18.0 °F 92% 29.68 in 1.2 mi NE 19.6 mph 28.8 mph 0.01 in Snow Light Snow
1:53 AM 21.0 °F 4.6 °F 19.0 °F 92% 29.67 in 1.0 mi NE 23.0 mph 34.5 mph 0.01 in Snow Light Snow
2:12 AM 19.4 °F 3.2 °F 17.6 °F 93% 29.66 in 2.5 mi NE 20.7 mph 28.8 mph 0.01 in Snow Light Snow
2:49 AM 23.0 °F 8.0 °F 19.4 °F 86% 29.64 in 1.8 mi ENE 20.7 mph 34.5 mph 0.01 in Snow Light Snow
2:53 AM 23.0 °F 8.7 °F 21.0 °F 92% 29.65 in 1.8 mi NE 18.4 mph 34.5 mph 0.02 in Snow Light Snow
3:45 AM -4.0 °F -30.4 °F -5.8 °F 92% 29.64 in 0.8 mi ENE 27.6 mph 35.7 mph 0.00 in Snow Light Snow
3:53 AM -4.0 °F -30.4 °F -5.8 °F 92% 29.64 in 0.8 mi ENE 27.6 mph 39.1 mph N/A Snow Light Snow
3:55 AM -4.0 °F -29.6 °F -5.8 °F 92% 29.63 in 0.5 mi East 25.3 mph 39.1 mph 0.00 in Snow Snow
4:11 AM -4.0 °F -29.6 °F -5.8 °F 92% 29.63 in 0.8 mi ENE 25.3 mph 36.8 mph 0.00 in Snow Light Snow
4:21 AM -4.0 °F -30.9 °F -5.8 °F 92% 29.63 in 1.0 mi ENE 28.8 mph 35.7 mph 0.01 in Snow Light Snow
4:53 AM 23.0 °F 6.3 °F 19.4 °F 86% 29.62 in 1.0 mi ENE 26.5 mph 35.7 mph 0.01 in Snow Light Snow
5:53 AM 24.8 °F 9.6 °F 21.2 °F 86% 29.61 in 1.8 mi ENE 23.0 mph 33.4 mph 0.01 in Snow Light Snow
6:53 AM 24.8 °F 9.6 °F 21.2 °F 86% 29.61 in 1.0 mi East 23.0 mph 31.1 mph 0.03 in Snow Light Snow
7:32 AM 24.8 °F 8.7 °F 21.2 °F 86% 29.61 in 1.8 mi East 26.5 mph 33.4 mph 0.01 in Snow Light Snow
7:53 AM 24.8 °F 8.7 °F 21.2 °F 86% 29.61 in 1.8 mi East 26.5 mph 38.0 mph 0.01 in Snow Light Snow
8:00 AM 24.8 °F 8.7 °F 21.2 °F 86% 29.61 in 3.0 mi East 26.5 mph - 0.00 in Snow Blowing Snow
8:53 AM 24.8 °F 10.0 °F 21.2 °F 86% 29.62 in 6.0 mi East 21.9 mph - 0.00 in Snow Low Drifting Snow
9:10 AM 24.8 °F 9.3 °F 19.4 °F 80% 29.63 in 6.0 mi East 24.2 mph 34.5 mph N/A Snow Low Drifting Snow
9:53 AM 24.1 °F 8.0 °F 19.0 °F 81% 29.64 in 6.0 mi East 25.3 mph - N/A   Overcast
10:53 AM 24.1 °F 9.4 °F 19.0 °F 81% 29.68 in 7.0 mi East 20.7 mph 31.1 mph 0.01 in   Overcast
11:35 AM 23.0 °F 8.0 °F 19.4 °F 86% 29.69 in 2.0 mi East 20.7 mph 28.8 mph 0.00 in Rain , Snow Light Freezing Rain
11:53 AM 23.0 °F 7.6 °F 19.0 °F 85% 29.70 in 1.5 mi East 21.9 mph - 0.00 in Rain , Snow Light Freezing Rain
12:17 PM 21.2 °F 4.9 °F 19.4 °F 93% 29.70 in 1.0 mi East 23.0 mph 29.9 mph 0.01 in Snow Light Snow
12:26 PM 21.2 °F 5.6 °F 19.4 °F 93% 29.71 in 1.0 mi East 20.7 mph 29.9 mph 0.01 in Snow Light Snow
12:53 PM 21.0 °F 5.7 °F 19.0 °F 92% 29.72 in 1.0 mi East 19.6 mph - 0.02 in Snow Light Snow
1:00 PM 21.2 °F 6.0 °F 19.4 °F 93% 29.72 in 0.8 mi East 19.6 mph 27.6 mph 0.00 in Snow Light Snow
1:34 PM 21.2 °F 6.0 °F 19.4 °F 93% 29.73 in 0.8 mi East 19.6 mph 29.9 mph 0.01 in Snow Light Snow
1:53 PM 21.0 °F 5.4 °F 19.9 °F 96% 29.73 in 0.8 mi East 20.7 mph - 0.01 in Snow Light Snow
2:13 PM 24.8 °F 10.7 °F 21.2 °F 86% 29.74 in 1.0 mi East 19.6 mph 29.9 mph 0.02 in Snow Light Snow
2:42 PM 24.8 °F 10.7 °F 21.2 °F 86% 29.74 in 1.0 mi East 19.6 mph - 0.02 in Snow Light Snow
2:53 PM 24.1 °F 10.1 °F 21.0 °F 88% 29.75 in 1.0 mi East 18.4 mph - 0.02 in Snow Light Snow
2:57 PM 24.8 °F 10.7 °F 21.2 °F 86% 29.75 in 5.0 mi East 19.6 mph - 0.00 in Snow Light Snow
3:53 PM 24.1 °F 9.8 °F 21.0 °F 88% 29.77 in 5.0 mi East 19.6 mph 26.5 mph 0.00 in Snow Light Snow
4:49 PM 24.8 °F 10.7 °F 21.2 °F 86% 29.77 in 8.0 mi East 19.6 mph - 0.01 in   Overcast
4:53 PM 24.8 °F 10.7 °F 21.2 °F 86% 29.78 in 7.0 mi East 19.6 mph - 0.01 in   Overcast
5:28 PM 24.8 °F 10.7 °F 21.2 °F 86% 29.78 in 4.0 mi East 19.6 mph 27.6 mph 0.00 in Snow Light Snow
5:53 PM 24.8 °F 10.7 °F 21.2 °F 86% 29.80 in 6.0 mi East 19.6 mph - 0.00 in Snow Light Snow
6:48 PM 24.8 °F 11.1 °F 21.2 °F 86% 29.82 in 5.0 mi East 18.4 mph - 0.00 in Snow Light Snow
6:53 PM 24.8 °F 11.9 °F 21.2 °F 86% 29.82 in 5.0 mi East 16.1 mph - 0.00 in   Overcast
7:21 PM 24.8 °F 12.9 °F 21.2 °F 86% 29.83 in 4.0 mi East 13.8 mph 23.0 mph 0.00 in Snow Light Snow
7:53 PM 24.8 °F 11.9 °F 21.2 °F 86% 29.85 in 8.0 mi ENE 16.1 mph - 0.00 in Snow Light Snow
8:53 PM 26.6 °F 18.2 °F 23.0 °F 86% 29.86 in 4.0 mi NE 8.1 mph - 0.02 in Snow Light Snow
9:15 PM 26.6 °F 17.5 °F 23.0 °F 86% 29.86 in 3.0 mi NE 9.2 mph - 0.00 in Snow Light Snow
9:22 PM 26.6 °F 16.8 °F 23.0 °F 86% 29.87 in 2.5 mi NE 10.4 mph - 0.00 in Snow Light Snow
9:30 PM 26.6 °F 16.2 °F 23.0 °F 86% 29.87 in 3.0 mi ENE 11.5 mph - 0.00 in Snow Light Snow
9:53 PM 26.6 °F 16.8 °F 23.0 °F 86% 29.87 in 5.0 mi ENE 10.4 mph - 0.00 in Snow Light Snow
10:21 PM - - - N/A% 29.87 in 10.0 mi ENE 11.5 mph - 0.00 in   Overcast
10:53 PM 25.0 °F 15.5 °F 21.0 °F 85% 29.88 in 10.0 mi ENE 9.2 mph - 0.00 in   Overcast
11:03 PM 24.8 °F 15.3 °F 21.2 °F 86% 29.88 in 10.0 mi ENE 9.2 mph - N/A   Overcast
11:53 PM 26.1 °F 15.0 °F 21.2 °F 82% 29.89 in 10.0 mi East 12.7 mph - N/A   Overcast